1398211226944,2.65833
1398211286944,2.66235
1398211346944,2.63944
1398211406944,2.66333
1398211466944,2.62079
1398211526944,2.66393
1398211586944,2.66153
1398211646944,2.62681
1398211706944,2.65237
1398211766944,2.66619
1398211826944,2.68722
1398211886944,2.64359
1398211946944,2.63922
1398212006944,2.64495
1398212066944,2.61956
1398212126944,2.65929
1398212186944,2.67206
1398212246944,2.63213
1398212306944,2.63081
1398212366944,2.67806
1398212426944,2.68967
1398212486944,2.64818
1398212546944,2.65766
1398212606944,2.66120
1398212666944,2.64720
1398212726944,2.64164
1398212786944,2.65835
1398212846944,2.66081
1398212906944,2.68085
1398212966944,2.66727
1398213026944,2.64719
1398213086944,2.67527
1398213146944,2.66025
1398213206944,2.68868
1398213266944,2.66715
1398213326944,2.64236
1398213386944,2.66261
1398213446944,2.68649
1398213506944,2.73696
1398213566944,2.69403
1398213626944,2.65728
1398213686944,2.67326
1398213746944,2.64744
1398213806944,2.71474
1398213866944,2.66858
1398213926944,2.68314
1398213986944,2.64019
1398214046944,2.67477
1398214106944,2.65702
1398214166944,2.68567
1398214226944,2.61291
1398214286944,2.68150
1398214346944,2.68620
1398214406944,2.65621
1398214466944,2.67594
1398214526944,2.67363
1398214586944,2.67047
1398214646944,2.70453
1398214706944,2.68010
1398214766944,2.68190
1398214826954,2.69013
1398214886954,2.71874
1398214946954,2.66258
1398215006954,2.69909
1398215066954,2.68050
1398215126954,2.68117
1398215186954,2.69368
1398215246954,2.70663
1398215306954,2.69850
1398215366954,2.73298
1398215426954,2.67707
1398215486954,2.69581
1398215546954,2.68060
1398215606954,2.70876
1398215666954,2.72729
1398215726954,2.70383
1398215786954,2.73290
1398215846954,2.72279
1398215906954,2.72750
1398215966954,2.71917
1398216026954,2.72789
1398216086954,2.73641
1398216146954,2.76155
1398216206954,2.77462
1398216266954,2.75172
1398216326954,2.72987
1398216386954,2.75104
1398216446954,2.75584
1398216506954,2.76531
1398216566954,2.76626
1398216626954,2.73756
1398216686954,2.77528
1398216746954,2.74899
1398216806954,2.72577
1398216866954,2.74592
1398216926954,2.76848
1398216986954,2.73155
1398217046954,2.75055
1398217106954,2.68017
1398217166954,2.75540
1398217226954,2.73052
1398217286954,2.71063
1398217346954,2.72456
1398217406954,2.67004
1398217466954,2.68451
1398217526954,2.70363
1398217586954,2.70223
1398217646954,2.70194
1398217706954,2.73672
1398217766954,2.70166
1398217826954,2.69458
1398217886954,2.67273
1398217946954,2.71824
1398218006954,2.69758
1398218066954,2.69199
1398218126954,2.69626
1398218186954,2.69773
1398218246954,2.68222
1398218306954,2.67299
1398218366954,2.69514
1398218426965,2.68633
1398218486965,2.73355
1398218546965,2.67266
1398218606965,2.68846
1398218666965,2.69752
1398218726965,2.69149
1398218786965,2.67552
1398218846965,2.69418
1398218906965,2.65770
1398218966965,2.71759
1398219026965,2.72598
1398219086965,2.70409
1398219146965,2.69603
1398219206965,2.70025
1398219266965,2.72422
1398219326965,2.68535
1398219386965,2.66864
1398219446965,2.72501
1398219506965,2.68678
1398219566965,2.67387
1398219626965,2.66890
1398219686965,2.67878
1398219746965,2.69570
1398219806965,2.67910
1398219866965,2.69162
1398219926965,2.66120
1398219986965,2.68372
1398220046965,2.65633
1398220106965,2.62711
1398220166965,2.65761
1398220226965,2.64649
1398220286965,2.63304
1398220346965,2.65419
1398220406965,2.63072
1398220466965,2.61469
1398220526965,2.64284
1398220586965,2.60525
1398220646965,2.60511
1398220706965,2.64381
1398220766965,2.61589
1398220826965,2.60293
1398220886965,2.62104
1398220946965,2.60940
1398221006965,2.60400
1398221066965,2.59022
1398221126965,2.59910
1398221186965,2.55499
1398221246965,2.58953
1398221306965,2.57603
1398221366965,2.62123
1398221426965,2.61635
1398221486965,2.60503
1398221546965,2.59844
1398221606965,2.61088
1398221666965,2.59717
1398221726965,2.61979
1398221786965,2.58423
1398221846965,2.57880
1398221906965,2.59654
1398221966965,2.59022
1398222026975,2.58794
1398222086975,2.58732
1398222146975,2.58118
1398222206975,2.56004
1398222266975,2.58405
1398222326975,2.58252
1398222386975,2.56466
1398222446975,2.58636
1398222506975,2.64519
1398222566975,2.55146
1398222626975,2.53215
1398222686975,2.54982
1398222746975,2.55101
1398222806975,2.56595
1398222866975,2.56484
1398222926975,2.55541
1398222986975,2.57524
1398223046975,2.54676
1398223106975,2.56729
1398223166975,2.53092
1398223226975,2.58741
1398223286975,2.55434
1398223346975,2.52771
1398223406975,2.55298
1398223466975,2.54154
1398223526975,2.52398
1398223586975,2.57096
1398223646975,2.54746
1398223706975,2.55562
1398223766975,2.54122
1398223826975,2.56865
1398223886975,2.53412
1398223946975,2.55023
1398224006975,2.55599
1398224066975,2.54721
1398224126975,2.57397
1398224186975,2.54544
1398224246975,2.54531
1398224306975,2.56930
1398224366975,2.54195
1398224426975,2.55490
1398224486975,2.53777
1398224546975,2.52450
1398224606975,2.53545
1398224666975,2.55423
1398224726975,2.51234
1398224786975,2.54113
1398224846975,2.54493
1398224906975,2.55358
1398224966975,2.54284
1398225026975,2.52173
1398225086975,2.51268
1398225146975,2.53998
1398225206975,2.53534
1398225266975,2.52205
1398225326975,2.53824
1398225386975,2.52690
1398225446975,2.50787
1398225506975,2.53041
1398225566975,2.51608
1398225626986,2.50644
1398225686986,2.34493
1398225746986,2.54191
1398225806986,2.51571
1398225866986,2.54390
1398225926986,2.53275
1398225986986,2.51708
1398226046986,2.50383
1398226106986,2.47714
1398226166986,2.53496
1398226226986,2.51479
1398226286986,2.52710
1398226346986,2.50861
1398226406986,2.59387
1398226466986,2.51101
1398226526986,2.50201
1398226586986,2.53631
1398226646986,2.51039
1398226706986,2.51114
1398226766986,2.54016
1398226826986,2.51148
1398226886986,2.51482
1398226946986,2.51768
1398227006986,2.50197
1398227066986,2.54876
1398227126986,2.53617
1398227186986,2.52370
1398227246986,2.52314
1398227306986,2.53065
1398227366986,2.49376
1398227426986,2.51511
1398227486986,2.49441
1398227546986,2.50948
1398227606986,2.51162
1398227666986,2.51041
1398227726986,2.48639
1398227786986,2.53065
1398227846986,2.51794
1398227906986,2.49986
1398227966986,2.51893
1398228026986,2.50783
1398228086986,2.51213
1398228146986,2.50380
1398228206986,2.53534
1398228266986,2.50435
1398228326986,2.52693
1398228386986,2.50249
1398228446986,2.52547
1398228506986,2.52116
1398228566986,2.51450
1398228626986,2.50802
1398228686986,2.54675
1398228746986,2.52582
1398228806986,2.49272
1398228866986,2.49275
1398228926986,2.50705
1398228986986,2.50814
1398229046986,2.53020
1398229106986,2.47709
1398229166986,2.47144
1398229226996,2.50556
1398229286996,2.49616
1398229346996,2.52536
1398229406996,2.50260
1398229466996,2.51450
1398229526996,2.51031
1398229586996,2.51153
1398229646996,2.49451
1398229706996,2.51434
1398229766996,2.49643
1398229826996,2.49774
1398229886996,2.46690
1398230426996,2.51989
1398230486996,2.46023
1398230546996,2.48946
1398230606996,2.51646
1398230666996,2.50815
1398230726996,2.50084
1398230786996,2.50864
1398230846996,2.48865
1398230906996,2.51957
1398230966996,2.50342
1398231026996,2.51504
1398231086996,2.49992
1398231146996,2.49248
1398231206996,2.50485
1398231266996,2.50825
1398231326996,2.52057
1398231386996,2.51270
1398231446996,2.51384
1398231506996,2.56005
1398231566996,2.49073
1398231626996,2.49743
1398231686996,2.52855
1398231746996,2.58226
1398231806996,2.52833
1398231866996,2.53746
1398231926996,2.47902
1398231986996,2.50929
1398232046996,2.49436
1398232106996,2.48693
1398232166996,2.50046
1398232226996,2.51498
1398232286996,2.51194
1398232346996,2.48469
1398232406996,2.48501
1398232466996,2.52993
1398232526996,2.49887
1398232586996,2.53350
1398232646996,2.50746
1398232706996,2.51485
1398232766996,2.50130
1398232827006,2.50542
1398232887006,2.51519
1398232947006,2.47711
1398233007006,2.51165
1398233067006,2.51551
1398233127006,2.52231
1398233187006,2.53654
1398233247006,2.49227
1398233307006,2.51622
1398233367006,2.51265
1398233427006,2.52594
1398233487006,2.53982
1398233547006,2.52539
1398233607006,2.51815
1398233667006,2.52694
1398233727006,2.53274
1398233787006,2.51359
1398233847006,2.50965
1398233907006,2.50766
1398233967006,2.51250
1398234027006,2.50712
1398234087006,2.48094
1398234147006,2.49680
1398234207006,2.49401
1398234267006,2.52421
1398234327006,2.52623
1398234387006,2.53229
1398234447006,2.51845
1398234507006,2.49307
1398234567006,2.50864
1398234627006,2.52568
1398234687006,2.49557
1398234747006,2.50471
1398234807006,2.48481
1398234867006,2.54390
1398234927006,2.52456
1398234987006,2.49851
1398235047006,2.47522
1398235107006,2.50061
1398235167006,2.48669
1398235227006,2.50499
1398235287006,2.48721
1398235347006,2.49311
1398235407006,2.51714
1398235467006,2.49095
1398235527006,2.50347
1398235587006,2.45139
1398235647006,2.47565
1398235707006,2.47769
1398235767006,2.46500
1398235827006,2.47409
1398235887006,2.46791
1398235947006,2.45846
1398236007006,2.49611
1398236067006,2.49198
1398236127006,2.50645
1398236187006,2.73720
1398236247006,2.47992
1398236307006,2.47743
1398236367006,2.47951
1398236427016,2.50673
1398236487016,2.48945
1398236547016,2.49765
1398236607016,2.49312
1398236667015,2.47304
1398236727015,2.49308
1398236787015,2.47456
1398236847015,2.48149
1398236907016,2.47957
1398236967016,2.48814
1398237027016,2.47968
1398237087016,2.45338
1398237147016,2.45536
1398237207016,2.48619
1398237267016,2.46819
1398237327016,2.48782
1398237387016,2.44603
1398237447016,2.49433
1398237507016,2.46091
1398237567016,2.46339
1398237627016,2.48246
1398237687016,2.45501
1398237747016,2.46382
1398237807016,2.47995
1398237867016,2.46591
1398237927016,2.48524
1398237987016,2.50075
1398238047015,2.46820
1398238107015,2.49024
1398238167015,2.49040
1398238227015,2.44620
1398238287016,2.50432
1398238347016,2.49124
1398238407016,2.48679
1398238467016,2.48666
1398238527016,2.48323
1398238587016,2.45609
1398238647016,2.48718
1398238707016,2.46695
1398238767016,2.46406
1398238827016,2.47527
1398238887016,2.48464
1398238947016,2.48801
1398239007016,2.46291
1398239067016,2.46097
1398239127016,2.45656
1398239187016,2.47178
1398239247016,2.49288
1398239307016,2.48260
1398239367015,2.45559
1398239427015,2.46685
1398239487015,2.46902
1398239547015,2.48619
1398239607016,2.47986
1398239667016,2.47990
1398239727016,2.48608
1398239787016,2.46479
1398239847016,2.50558
1398239907016,2.47592
1398239967016,2.47017
1398240027025,2.48945
1398240087025,2.46054
1398240147025,2.46273
1398240207025,2.44690
1398240267025,2.46977
1398240327025,2.47375
1398240387025,2.46909
1398240447025,2.45781
1398240507025,2.47265
1398240567025,2.45969
1398240627025,2.46193
1398240687025,2.44160
1398240747025,2.50153
1398240807025,2.28897
1398240867025,2.48687
1398240927025,2.45515
1398240987025,2.46895
1398241047025,2.46327
1398241107025,2.45406
1398241167025,2.46462
1398241227025,2.44091
1398241287025,2.46596
1398241347025,2.47392
1398241407025,2.45605
1398241467025,2.44202
1398241527025,2.45995
1398241587025,2.45700
1398241647025,2.46455
1398241707025,2.48294
1398241767025,2.46166
1398241827025,2.45751
1398241887025,2.49032
1398241947025,2.47725
1398242007025,2.47769
1398242067025,2.45040
1398242127025,2.45153
1398242187025,2.45773
1398242247025,2.45508
1398242307025,2.46478
1398242367025,2.48242
1398242427025,2.46001
1398242487025,2.46506
1398242547025,2.46143
1398242607025,2.49478
1398242667025,2.48731
1398242727025,2.46194
1398242787025,2.49349
1398242847025,2.45236
1398242907025,2.46427
1398242967025,2.44023
1398243027025,2.45525
1398243087025,2.46686
1398243147025,2.47039
1398243207025,2.44310
1398243267025,2.47926
1398243327025,2.46105
1398243387025,2.48704
1398243447025,2.44169
1398243507025,2.46879
1398243567025,2.45795
1398243627035,2.47358
1398243687035,2.48931
1398243747035,2.46153
1398243807035,2.45415
1398243867035,2.46162
1398243927035,2.42404
1398243987035,2.45915
1398244047035,2.48107
1398244107035,2.47347
1398244167035,2.47096
1398244227035,2.45435
1398244287035,2.45674
1398244347035,2.46333
1398244407035,2.46658
1398244467035,2.43100
1398244527035,2.47516
1398244587035,2.46601
1398244647035,2.46563
1398244707035,2.45634
1398244767035,2.49169
1398244827035,2.48142
1398244887035,2.47890
1398244947035,2.45972
1398245007035,2.47523
1398245067035,2.47835
1398245127035,2.46856
1398245187035,2.47437
1398245247035,2.46656
1398245307035,2.48382
1398245367035,2.49597
1398245427035,2.46871
1398245487035,2.47099
1398245547035,2.49387
1398245607035,2.45353
1398245667035,2.44972
1398245727035,2.51121
1398245787035,2.48114
1398245847035,2.49071
1398245907035,2.50456
1398245967035,2.59621
1398246027035,2.47375
1398246087035,2.47307
1398246147035,2.50598
1398246207035,2.47939
1398246267035,2.51330
1398246327035,2.50542
1398246387035,2.48466
1398246447035,2.50789
1398246507035,2.48255
1398246567035,2.48401
1398246627035,2.49299
1398246687035,2.48971
1398246747035,2.48703
1398246807035,2.47832
1398246867035,2.50504
1398246927035,2.51743
1398246987035,2.48060
1398247047035,2.48061
1398247107035,2.48456
1398247167035,2.47632
1398247227045,2.48154
1398247287045,2.48525
1398247347045,2.48206
1398247407045,2.49110
1398247467045,2.49790
1398247527045,2.49755
1398247587045,2.49106
1398247647045,2.49992
1398247707045,2.49959
1398247767045,2.51020
1398247827045,2.46200
1398247887045,2.48346
1398247947045,2.48861
1398248007045,2.48387
1398248067045,2.46644
1398248127045,2.48540
1398248187045,2.44346
1398248247045,2.50030
1398248307045,2.47632
1398248367045,2.48246
1398248427045,2.48309
1398248487045,2.46670
1398248547045,2.48525
1398248607045,2.47238
1398248667045,2.47050
1398248727045,2.49294
1398248787045,2.47726
1398248847045,2.47074
1398248907045,2.78229
1398248967045,2.47171
1398249027045,2.49402
1398249087045,2.47291
1398249147045,2.44361
1398249207045,2.48450
1398249267045,2.45541
1398249327045,2.49636
1398249387045,2.45525
1398249447045,2.49026
1398249507045,2.47302
1398249567045,2.47956
1398249627045,2.49596
1398249687045,2.50213
1398249747045,2.46294
1398249807045,2.48674
1398249867045,2.48725
1398249927045,2.47870
1398249987045,2.45986
1398250047045,2.43178
1398250107045,2.45778
1398250167045,2.49511
1398250227045,2.49940
1398250287045,2.48110
1398250347045,2.47851
1398250407045,2.47777
1398250467045,2.48839
1398250527045,2.45923
1398250587045,2.46902
1398250647045,2.45389
1398250707045,2.44412
1398250767045,2.48288
1398250827055,2.47526
1398250887055,2.44964
1398250947055,2.45139
1398251007055,2.49656
1398251067055,2.45966
1398251127055,2.46668
1398251187055,2.47754
1398251247055,2.49593
1398251307055,2.47769
1398251367055,2.47100
1398251427055,2.45784
1398251487055,2.49899
1398251547055,2.45631
1398251607055,2.44103
1398251667055,2.47012
1398251727055,2.46089
1398251787055,2.46510
1398251847055,2.48039
1398251907055,2.46728
1398251967055,2.48547
1398252027055,2.44467
1398252087055,2.45432
1398252147055,2.48147
1398252207055,2.46063
1398252267055,2.50418
1398252327055,2.48861
1398252387055,2.44353
1398252447055,2.44849
1398252507055,2.46265
1398252567055,2.48543
1398252627055,2.47139
1398252687055,2.46997
1398252747055,2.48301
1398252807055,2.53952
1398252867055,2.48848
1398252927055,2.42943
1398252987055,2.47947
1398253047055,2.43502
1398253107055,2.47746
1398253167055,2.47365
1398253227055,2.45695
1398253287055,2.46146
1398253347055,2.43402
1398253407055,2.46027
1398253467055,2.47523
1398253527055,2.43287
1398253587055,2.44505
1398253647055,2.48451
1398253707055,2.46993
1398253767055,2.43904
1398253827055,2.45627
1398253887055,2.45515
1398253947055,2.44857
1398254007055,2.45257
1398254067055,2.46961
1398254127055,2.52326
1398254187055,2.48296
1398254247055,2.45496
1398254307055,2.44342
1398254367055,2.48183
1398254427065,2.46961
1398254487065,2.47217
1398254547065,2.45361
1398254607065,2.47586
1398254667065,2.43310
1398254727065,2.48006
1398254787065,2.42383
1398254847065,2.46496
1398254907065,2.46638
1398254967065,2.48117
1398255027065,2.48920
1398255087065,2.45266
1398255147065,2.46078
1398255207065,2.58541
1398255267065,2.46155
1398255327065,2.44319
1398255387065,2.47481
1398255447065,2.44678
1398255507065,2.44166
1398255567065,2.45092
1398255627065,2.42830
1398255687065,2.47996
1398255747065,2.43922
1398255807065,2.43540
1398255867065,2.45246
1398255927065,2.46577
1398255987065,2.46798
1398256047065,2.47279
1398256107065,2.49841
1398256167065,2.44463
1398256227065,2.46994
1398256287065,2.46189
1398256347065,2.47741
1398256407065,2.48962
1398256467065,2.46853
1398256527065,2.47127
1398256587065,2.45117
1398256647065,2.47516
1398256707065,2.50867
1398256767065,2.48144
1398256827065,2.47752
1398256887065,2.46910
1398256947065,2.45414
1398257007065,2.49403
1398257067065,2.48876
1398257127065,2.45124
1398257187065,2.48250
1398257247065,2.46762
1398257307065,2.45845
1398257367065,2.48021
1398257427065,2.48593
1398257487065,2.50324
1398257547065,2.48899
1398257607065,2.51124
1398257667065,2.54271
1398257727065,2.48313
1398257787065,2.48466
1398257847065,2.52536
1398257907065,2.48192
1398257967065,2.49479
1398258027074,2.51642
1398258087074,2.47425
1398258147074,2.47746
1398258207074,2.52829
1398258267074,2.49004
1398258327074,2.49086
1398258387074,2.47673
1398258447074,2.50552
1398258507074,2.46993
1398258567074,2.48696
1398258627074,2.50706
1398258687074,2.48810
1398258747074,2.50136
1398258807074,2.50671
1398258867074,2.44203
1398263427084,2.50006
1398263487084,2.51572
1398263547084,2.49684
1398263607084,2.51747
1398263667084,2.51224
1398263727084,2.49036
1398268107093,2.52085
1398268167093,2.47524
1398268227093,2.48094
1398268287093,2.48800
1398268347093,2.50735
1398268407093,2.51159
1398268467093,2.48667
1398268527093,2.50238
1398268587093,2.51638
1398268647093,2.47711
1398268707093,2.49433
1398268767093,2.47735
1398268827103,2.50546
1398268887103,2.51452
1398268947103,2.49947
1398269007103,2.55675
1398269067103,2.50983
1398269127103,2.48191
1398269187103,2.46883
1398269247103,2.49928
1398269307103,2.46736
1398269367103,2.50273
1398269427103,2.53506
1398269487103,2.50628
1398269547103,2.52755
1398269607103,2.49702
1398269667103,2.51963
1398269727103,2.50109
1398269787103,2.52750
1398269847103,2.50843
1398269907103,2.48910
1398269967103,2.48641
1398270027103,2.50113
1398270087103,2.51663
1398270147103,2.49923
1398270207103,2.48235
1398270267103,2.52600
1398270327103,2.51704
1398270387103,2.48663
1398270447103,2.50866
1398270507103,2.51298
1398270567103,2.49438
1398279627133,2.47329
1398279687133,2.46586
1398279747133,2.44984
1398279807133,2.45449
1398279867133,2.47310
1398279927133,2.44697
1398279987133,2.43257
1398280047133,2.43802
1398280107133,2.47706
1398280167133,2.45774
1398280227133,2.46825
1398280287133,2.44488
1398280347133,2.48825
1398280407133,2.42887
1398280467133,2.46958
1398280527133,2.45438
1398280587133,2.48578
1398280647133,2.44540
1398280707133,2.46421
1398280767133,2.46997
1398280827133,2.44832
1398280887133,2.44785
1398280947133,2.44359
1398281007133,2.48859
1398281067133,2.45622
1398281127133,2.45406
1398281187133,2.44592
1398281247133,2.42972
1398281307133,2.44880
1398281367133,2.44342
1398281427133,2.44664
1398281487133,2.45801
1398281547133,2.45281
1398281607133,2.39977
1398281667133,2.43341
1398281727133,2.43662
1398281787133,2.47186
1398281847133,2.46629
1398281907133,2.46760
1398281967133,2.43301
1398282027133,2.44911
1398282087133,2.42773
1398282147133,2.45256
1398282207133,2.43206
1398282267133,2.44018
1398282327133,2.45482
1398282387133,2.46811
1398282447133,2.47387
1398282507133,2.43084
1398282567133,2.47198
1398282627133,2.42851
1398282687133,2.46563
1398282747133,2.46787
1398282807133,2.47174
1398282867133,2.45345
1398282927133,2.42063
1398282987133,2.43759
1398283047133,2.47872
1398283107133,2.43729
1398283167133,2.44767
1398283227143,2.44102
1398283287143,2.42962
1398283347143,2.42655
1398283407143,2.43761
1398283467143,2.42285
1398283527143,2.42982
1398283587143,2.42436
1398283647143,2.43760
1398283707143,2.46954
1398283767143,2.45498
1398283827143,2.43262
1398283887143,2.46406
1398283947143,2.44509
1398284007143,2.44450
1398284067143,2.42571
1398284127143,2.40304
1398284187143,2.46464
1398284247143,2.41894
1398284307143,2.44166
1398284367143,2.45170
1398284427143,2.42309
1398284487143,2.45014
1398284547143,2.42513
1398284607143,2.43242
1398284667143,2.42966
1398284727143,2.42372
1398284787143,2.41026
1398284847143,2.41674
1398284907143,2.42561
1398284967143,2.41137
1398285027143,2.44897
1398285087143,2.44685
1398285147143,2.47806
1398285207143,2.45236
1398285267143,2.40714
1398285327143,2.42369
1398285387143,2.41391
1398285447143,2.45055
1398285507143,2.43222
1398285567143,2.43770
1398285627143,2.44614
1398285687143,2.45863
1398285747143,2.43248
1398285807143,2.44220
1398285867143,2.43491
1398285927143,2.45352
1398285987143,2.44122
1398286047143,2.43820
1398286107143,2.46087
1398286167143,2.47843
1398286227143,2.42494
1398286287143,2.46752
1398286347143,2.46324
1398286407143,2.44935
1398286467143,2.46056
1398286527143,2.45221
1398286587143,2.45024
1398286647143,2.49789
1398286707143,2.43608
1398286767143,2.45931
1398286827154,2.44900
1398286887154,2.45944
1398286947154,2.47633
1398287007154,2.45165
1398287067154,2.44129
1398287127154,2.42935
1398287187154,2.44902
1398287247154,2.43097
1398287307154,2.43014
1398287367154,2.46513
1398287427154,2.45860
1398287487154,2.46375
1398287547154,2.42393
1398287607154,2.44678
1398287667154,2.42944
1398287727154,2.45319
1398287787154,2.43933
1398287847154,2.43754
1398287907154,2.43184
1398287967154,2.43241
1398288027154,2.42940
1398288087154,2.45506
1398288147154,2.44722
1398288207154,2.45402
1398288267154,2.45654
1398288327154,2.44513
1398288387154,2.43601
1398288447154,2.44014
1398288507154,2.44390
1398288567154,2.46023
1398288627154,2.44143
1398288687154,2.44583
1398288747154,2.43410
1398288807154,2.43453
1398288867154,2.42633
1398288927154,2.44296
1398288987154,2.43980
1398289047154,2.43772
1398289107154,2.44437
1398289167154,2.46193
1398289227154,2.42058
1398289287154,2.41622
1398289347154,2.40868
1398289407154,2.40876
1398289467154,2.41482
1398289527154,2.42628
1398289587154,2.45594
1398289647154,2.43480
1398289707154,2.45279
1398289767154,2.42790
1398289827154,2.44181
1398289887154,2.45830
1398289947154,2.45046
1398290007154,2.43388
1398290067154,2.53423
1398290127154,2.42321
1398290187154,2.42159
1398290247154,2.41469
1398290307154,2.43048
1398290367154,2.41490
1398290427164,2.44746
1398290487164,2.41645
1398290547164,2.41301
1398290607164,2.41820
1398290667164,2.42963
1398290727164,2.42707
1398290787164,2.44920
1398290847164,2.39210
1398290907164,2.43766
1398290967164,2.40460
1398291027164,2.40352
1398291087164,2.41756
1398291147164,2.44059
1398291207164,2.44016
1398291267164,2.40263
1398291327164,2.43947
1398291387164,2.43662
1398291447164,2.42295
1398291507164,2.40819
1398291567164,2.41455
1398291627164,2.41796
1398291687164,2.41277
1398291747164,2.39306
1398291807164,2.51521
1398291867164,2.41419
1398291927164,2.41423
1398291987164,2.40082
1398292047164,2.41818
1398292107164,2.43808
1398292167164,2.42227
1398292227164,2.39898
1398292287164,2.42882
1398292347164,2.40413
1398292407164,2.43491
1398292467164,2.42177
1398292527164,2.41632
1398292587164,2.41082
1398292647164,2.44086
1398292707164,2.41731
1398292767164,2.42855
1398292827164,2.46377
1398292887164,2.41303
1398292947164,2.39359
1398293007164,2.42509
1398293067164,2.40306
1398293127164,2.40539
1398293187164,2.39167
1398293247164,2.41102
1398293307164,2.40310
1398293367164,2.41365
1398293427164,2.42570
1398293487164,2.39018
1398293547164,2.40058
1398293607164,2.38156
1398293667164,2.41301
1398293727164,2.42209
1398293787164,2.41746
1398293847164,2.44897
1398293907164,2.39509
1398293967164,2.40159
1398294027175,2.41957
1398294087175,2.43446
1398294147175,2.41139
1398294207175,2.36363
1398294267175,2.41367
1398294327175,2.40541
1398294387175,2.40213
1398294447175,2.39731
1398294507175,2.39583
1398294567175,2.39621
1398294627175,2.41083
1398294687175,2.40745
1398294747175,2.40156
1398294807175,2.40914
1398294867175,2.36742